Weather in Hlukhiv

Ukraine / Sumi District     51˚40′19″N   33˚54′39″E
temp.,
°C
wind,
m/s
gust,
m/s
humid.,
%
clouds,
%
prec.,
mm/h
press.,
hPa
HPBL,
m
3 december, thu
thu323:00−4˚se489697 0.2 1031367
02:00−4˚se479698 0.8 1030334
05:00−4˚se479697 0.4 1030276
08:00−4˚se479696 0.9 1030333
11:00−2˚se479590 0.2 1030412
14:00−2˚se479693 0.4 1029399
17:00−3˚ese489791 0.1 1029245
20:00−2˚se489694 0.4 1028334
4 december, fri
fri423:00−4˚ese489689 0.1 1028210
02:00−2˚se479694 0.1 1029298
05:00−2˚ese599699 0.1 1027325
08:00−1˚se6109799 0.4 1028420
11:00se61095100 0.2 1028431
14:00se61093100 0.2 1029421
17:00−1˚se6129395 0.0 1029401
20:00se6129397 0.0 1029520
5 december, sat
sat523:00−1˚se61193100 0.0 1030535
02:00−1˚se51093100 0.0 1031496
05:00−2˚se61094100 0.0 1031445
08:00−2˚se5119399 0.0 1032410
11:00−2˚se6109169 0.0 1033402
14:00−2˚ese598871 0.0 1033331
17:00−5˚ese511860 0.0 1033279
20:00−6˚ese511820 0.0 1035275
6 december, sun
sun623:00−7˚ese511820 0.0 1035247
02:00−8˚ese411810 0.0 1036219
05:00−8˚ese511800 0.0 1036218
08:00−8˚ese511780 0.0 1037243
11:00−5˚ese511750 0.0 1037329
14:00−5˚ese511760 0.0 1036305
17:00−7˚ese512770 0.0 1036254
20:00−8˚ese513780 0.0 1037290
7 december, mon
mon723:00−8˚ese513770 0.0 1037299
02:00−8˚ese513820 0.0 1037296
05:00−8˚ese513860 0.0 1037280
08:00−8˚ese612860 0.0 1037310
11:00−6˚ese612820 0.0 1036389
14:00−5˚ese612790 0.0 1036427
17:00−6˚ese513790 0.0 1035355
20:00−7˚ese513800 0.0 1035350